This is the latest recevied weather packets stored in our database for station/object W0SS-13. If no packets are shown the sender has not sent any weather packets the latest 10 day(s).
| Time | Temp. | Humidity | Pressure | Rain* | Wind** | Luminosity | Snow |
|---|---|---|---|---|---|---|---|
| 1777609526 | 10.56° C | 63% | 1020.2 hPa | 0 mm | - | 0 W/m² | - |
| 1777609224 | 10.56° C | 62% | 1020.2 hPa | 0 mm | - | 0 W/m² | - |
| 1777608921 | 10.56° C | 63% | 1020.3 hPa | 0 mm | - | 0 W/m² | - |
| 1777608617 | 10.56° C | 65% | 1020.2 hPa | 0 mm | - | 0 W/m² | - |
| 1777608315 | 10.56° C | 63% | 1019.9 hPa | 0 mm | - | 0 W/m² | - |
| 1777608013 | 11.11° C | 61% | 1020.1 hPa | 0 mm | - | 0 W/m² | - |
| 1777607708 | 11.67° C | 61% | 1020.2 hPa | 0 mm | - | 0 W/m² | - |
| 1777607405 | 11.67° C | 61% | 1020 hPa | 0 mm | - | 0 W/m² | - |
| 1777607101 | 11.67° C | 60% | 1019.9 hPa | 0 mm | - | 0 W/m² | - |
| 1777606797 | 11.67° C | 60% | 1020.1 hPa | 0 mm | - | 0 W/m² | - |
| 1777606492 | 11.11° C | 63% | 1020 hPa | 0 mm | - | 0 W/m² | - |
| 1777606188 | 11.11° C | 66% | 1020.2 hPa | 0 mm | - | 0 W/m² | - |
| 1777605884 | 11.11° C | 66% | 1019.9 hPa | 0 mm | - | 0 W/m² | - |
| 1777605579 | 11.11° C | 66% | 1020 hPa | 0 mm | - | 0 W/m² | - |
| 1777605274 | 11.11° C | 66% | 1019.7 hPa | 0 mm | - | 0 W/m² | - |
| 1777604971 | 11.67° C | 64% | 1019.8 hPa | 0 mm | - | 0 W/m² | - |
| 1777604666 | 11.67° C | 65% | 1019.9 hPa | 0 mm | - | 0 W/m² | - |
| 1777604363 | 11.67° C | 64% | 1019.8 hPa | 0 mm | - | 0 W/m² | - |
| 1777604057 | 11.67° C | 66% | 1019.7 hPa | 0 mm | - | 0 W/m² | - |
| 1777603755 | 11.67° C | 65% | 1019.7 hPa | 0 mm | - | 0 W/m² | - |
| 1777603450 | 11.67° C | 65% | 1019.7 hPa | 0 mm | - | 0 W/m² | - |
| 1777603147 | 11.67° C | 65% | 1019.4 hPa | 0 mm | - | 0 W/m² | - |
| 1777602841 | 11.67° C | 64% | 1019.5 hPa | 0 mm | - | 0 W/m² | - |
| 1777602536 | 12.22° C | 64% | 1019.1 hPa | 0 mm | - | 0 W/m² | - |
| 1777602233 | 12.22° C | 63% | 1019.1 hPa | 0 mm | - | 0 W/m² | - |
* Rain latest hour (hover to see other rain measurements)
** Current wind speed in m/s (hover to see current wind gust speed)